Location: *
(38.3914°N, 75.0697°W)
Time: 19:20:03
(UTC+00:00)

Cosmos 1943 - Pass Details

Date: 17 February 2020
Orbit: 832 x 851 km, 71.0° (Epoch: 30 March)

Event Time Altitude Azimuth Distance (km) Brightness Sun altitude
Rises 10:01:28 0° 190° (S) 3,360 6.2 -21.7°
Reaches altitude 10° 10:03:55 10° 187° (S) 2,430 5.5 -21.2°
Maximum altitude 10:09:23 60° 108° (ESE) 950 3.7 -20.1°
Drops below altitude 10° 10:14:54 10° 30° (NNE) 2,453 6.0 -19.1°
Sets 10:17:23 0° 27° (NNE) 3,393 6.7 -18.6°
